sat.trackr.live / text

‹ back to catalog

GLOBALSTAR M089

NORAD 37744 · 2011-033F

PAYLOAD ACTIVE UNKNOWN

§ Identity

Operator
Country
GLOB
Launch date
2011-07-13
Launch site
TYMSC
Launch vehicle
Mass (kg)
RCS (m²)
5.16

Purposes: comms

External: N2YO · Heavens-Above · Gunter

§ Orbital elements

Epoch: 2026-09-19T15:59:56.018112Z

Period
114.08 min
Inclination
51.9918°
Eccentricity
0.0000545
Mean motion
12.62263729 rev/d
Perigee alt
1,413.2 km
Apogee alt
1,414.0 km
Semi-major
7,791.8 km
B*
1.0135e-4
RAAN
222.1225°
Arg perigee
32.7997°
Mean anomaly
138.2984°
Rev number
70,271

§ Raw data

GLOBALSTAR M0891 37744U 11033F   26262.66662058 -.00000086  00000+0  10135-3 0  99972 37744  51.9918 222.1225 0000545  32.7997 138.2984 12.62263729702719

JSON: /api/v1/satellites/37744 · /tle

For live sub-satellite position, see the globe view (requires WebGL).

§ Visibility from observer

Set your observer location to see the next 7 days of passes ≥ 10°. The values pass through the URL so the page stays shareable.

No JS? Fill the form by hand. The geolocation button needs JavaScript.